Погода в Устье

Россия / Пензенская область     53°59′34″N   43°15′11″E
темп.,
°C
ветер,
м/с
пор.,
м/с
влажн.,
%
обл.,
%
осадки,
мм/ч
давл.,
гПа
погр.,
м
18 апреля, вс
вс1800:00+9в3579100 0.3 1019215
03:00+9зсз1284100 0.8 1019264
06:00+8св1283100 0.5 1019147
09:00+8всв2383100 0.6 1019274
12:00+9всв338259 0.3 1020492
15:00+11в557768 0.4 1020734
18:00+9всв5875100 0.0 1020536
21:00+8в51085100 0.1 1021371
19 апреля, пн
пн1900:00+7всв51182100 0.3 1021645
03:00+6всв61183100 0.4 1021550
06:00+5всв71288100 0.1 1021621
09:00+2всв81496100 2.8 1022656
12:00+2всв71598100 7.9 1022607
15:00+4в71396100 13.1 1022799
18:00+5в71487100 0.0 1022780
21:00+5в81482100 0.1 1022801
20 апреля, вт
вт2000:00+4в81589100 0.0 1022730
03:00+4в71383100 0.1 1023626
06:00+3в71390100 0.1 1023611
09:00+4вюв71490100 0.1 1023725
12:00+8вюв91274100 0.0 10221000
15:00+10вюв101466100 0.0 10201082
18:00+8вюв101763100 0.0 10181087
21:00+7вюв112065100 0.1 10171100
21 апреля, ср
ср2100:00+5вюв132380100 3.1 10141018
03:00+5юв122287100 5.7 10121036
06:00+5юв112188100 0.8 1011956
09:00+5юв112189100 0.9 1012892
12:00+6ююв101891100 0.4 1012916
15:00+7ююв91790100 0.5 1013903
18:00+7ю61093100 0.6 1015543
21:00+7ююз5109062 0.8 1017381
22 апреля, чт
чт2200:00+5ю479299 0.0 1019151
03:00+5ю4886100 0.0 1020223
06:00+5ююз4989100 0.1 1022308
09:00+7юз4676100 0.1 1023471
12:00+10юз565882 0.1 10241348
15:00+10юз4554100 0.1 10241612
18:00+10ююз236141 0.0 1024218
21:00+7ююз22726 0.0 102516